Location: Peterborough
(44.3091°N, 78.3197°W)
Time: 06:52:48
(UTC-04:00)

Vanguard 3 - Pass Details

Date: 31 March 2023
Orbit: 507 x 3246 km, 33.4° (Epoch: 04 June)

Event Time Altitude Azimuth Distance (km) Brightness Sun altitude
Rises 10:11:03 0° 278° (W) 7,090 11.5 32.8°
Reaches altitude 10° 10:19:26 10° 259° (WSW) 5,700 11.2 34.1°
Maximum altitude 10:26:35 14° 233° (SW) 4,854 11.1 35.1°
Drops below altitude 10° 10:32:40 10° 206° (SSW) 4,671 11.2 36.0°
Sets 10:38:14 0° 183° (S) 5,084 11.6 36.8°
